Home   Weather   Kaohsiung   Past weeks

Flag for Taiwan Past Weather in Kaohsiung, Taiwan — Yesterday and Last 2 Weeks

81 °F

Passing clouds.

Feels Like: 87 °F
Forecast: 78 / 91 °F
Wind: 7 mph from Northeast

Location: Kaohsiung International Airport

Current Time: Oct 24, 2016 at 4:37:01 AM

Latest Report: Oct 24, 2016 at 4:00 AM

Visibility: 4 mi

Pressure: 29.83 "Hg

Humidity: 89%

Dew Point: 77 °F

Location of KaohsiungLocation

Past Weather in Kaohsiung — Graph


Kaohsiung Temperature Yesterday

Maximum temperature yesterday: 90 °F (at 11:00 AM)
Minimum temperature yesterday: 79 °F (at 3:00 AM)
Average temperature yesterday: 84 °F

High & Low Weather Summary for the Past Weeks

High90 °F (Oct 17, 10:30 AM)100% (Oct 9, 3:52 AM)29.92 "Hg (Oct 9, 3:52 AM)
Low75 °F (Oct 9, 3:52 AM)59% (Oct 14, 4:00 PM)29.56 "Hg (Oct 20, 1:54 PM)
Average83 °F83%29.80 "Hg
* Reported Oct 9 3:00 AM — Oct 24 3:00 AM, Kaohsiung, Weather by CustomWeather, © 2016

Note: Actual official high and low records may vary slightly from our data, if they occured in-between our weather recording intervals... More about our weather records


Kaohsiung Weather History for the Previous 24 Hours

Scroll right to see more
Time TempWeatherWind HumidityBarometerVisibility
3:00 AM
Mon, Oct 24
81 °FPassing clouds.5 mph89%29.83 "HgN/A
2:00 AM81 °FPassing clouds.7 mph89%29.83 "HgN/A
1:00 AM82 °FPassing clouds.7 mph84%29.86 "HgN/A
12:00 AM81 °FPassing clouds.6 mph89%29.86 "HgN/A
11:30 PM
Sun, Oct 23
81 °FPassing clouds.5 mph89%29.86 "HgN/A
11:00 PM82 °FPassing clouds.3 mph84%29.86 "HgN/A
10:30 PM82 °FPassing clouds.5 mph79%29.86 "HgN/A
10:00 PM82 °FPartly cloudy.5 mph84%29.86 "HgN/A
9:30 PM82 °FPartly cloudy.6 mph84%29.86 "HgN/A
9:00 PM82 °FPartly cloudy.6 mph84%29.86 "HgN/A
8:30 PM82 °FPartly cloudy.5 mph84%29.86 "HgN/A
8:00 PM82 °FPassing clouds.8 mph84%29.86 "HgN/A
7:30 PM82 °FPassing clouds.8 mph84%29.83 "HgN/A
7:00 PM82 °FPassing clouds.8 mph84%29.83 "HgN/A
6:30 PM82 °FPassing clouds.9 mph84%29.80 "HgN/A
6:00 PM82 °FPassing clouds.9 mph79%29.80 "HgN/A
5:30 PM82 °FPassing clouds.9 mph84%29.80 "HgN/A
5:00 PM84 °FPassing clouds.9 mph74%29.80 "HgN/A
4:30 PM86 °FPassing clouds.12 mph70%29.80 "HgN/A
4:00 PM86 °FPassing clouds.15 mph70%29.80 "HgN/A
3:30 PM88 °FPassing clouds.15 mph70%29.77 "HgN/A
3:00 PM88 °FPassing clouds.13 mph70%29.77 "HgN/A
2:30 PM88 °FPassing clouds.15 mph70%29.77 "HgN/A
2:00 PM88 °FPassing clouds.15 mph75%29.77 "HgN/A
1:30 PM90 °FPassing clouds.14 mph71%29.80 "HgN/A
1:00 PM90 °FScattered clouds.12 mph75%29.80 "HgN/A
12:30 PM90 °FScattered clouds.12 mph71%29.80 "HgN/A
12:00 PM90 °FScattered clouds.13 mph75%29.83 "HgN/A
11:30 AM88 °FScattered clouds.10 mph79%29.83 "HgN/A
11:00 AM90 °FScattered clouds.10 mph75%29.83 "HgN/A
10:30 AM88 °FScattered clouds.8 mph79%29.86 "HgN/A
10:00 AM88 °FScattered clouds.7 mph75%29.86 "HgN/A
9:30 AM88 °FPartly sunny.6 mph75%29.86 "HgN/A
9:00 AM86 °FBroken clouds.6 mph79%29.86 "Hg5 mi
8:30 AM86 °FBroken clouds.5 mph84%29.86 "Hg5 mi
8:00 AM84 °FBroken clouds.2 mph84%29.86 "Hg5 mi
7:30 AM82 °FPartly sunny.2 mph89%29.86 "Hg5 mi
7:00 AM81 °FScattered clouds.3 mph94%29.86 "HgN/A
6:30 AM79 °FPassing clouds.2 mph94%29.83 "HgN/A
6:00 AM79 °FPassing clouds.5 mph94%29.83 "HgN/A
5:00 AM79 °FPassing clouds.2 mph94%29.83 "Hg5 mi
4:00 AM79 °FPassing clouds.3 mph94%29.80 "Hg4 mi
Weather by CustomWeather, © 2016

See weather overviewHow to use our weather pages